This demonstration page uses our WeatherBlox Daily Observations layout. Learn more.

Hourly Observations for July 13, 2017

Temp ( °F °C ) Dew Point ( °F °C ) Humidity (%) Winds ( mph kmh ) Pressure ( in mb ) Visibility ( mi km ) Precip ( " mm )
12:14 am 00:14 Cloudy with Light Rain 71 21.7 69 20.6 94 94 NNE 8 13 29.97 1015 6 9.65604 0.02 0.508
12:25 am 00:25 Cloudy with Nearby Thunderstorms 71 21.7 69 20.6 94 94 W 13 20 30 1016 6 9.65604 0.02 0.508
12:33 am 00:33 Cloudy with Nearby Thunderstorms 71 21.7 69 20.6 94 94 WNW 6 9 30.03 1017 1.75 2.816345 0.06 1.524
12:41 am 00:41 Cloudy with Heavy Thunderstorms 71 21.7 69 20.6 94 94 NNE 10 17 30 1016 1.25 2.011675 0.2 5.08
12:54 am 00:54 Cloudy with Thunderstorms 70 21.1 69 20.6 97 97 NE 15 24 29.99 1016 2 3.21868 0.43 10.922
1:02 am 01:02 Cloudy with Thunderstorms 70 21.1 69 20.6 97 97 ENE 14 22 30 1016 4 6.43736 0.02 0.508
1:54 am 01:54 Cloudy with Light Thunderstorms 70 21.1 69 20.6 97 97 ENE 8 13 30.01 1016 10 16.0934 0.09 2.286
2:23 am 02:23 Cloudy with Light Thunderstorms 71 21.7 69 20.6 94 94 NW 10 17 30.06 1018 2.5 4.02335 0.07 1.778
2:39 am 02:39 Cloudy with Nearby Thunderstorms 71 21.7 68 20 90 90 NNW 7 11 30.06 1018 5 8.0467 0.16 4.064
2:52 am 02:52 Cloudy with Thunderstorms 72 22 70 21 94 94 WNW 9 15 30.06 1018 3 4.82802 0.19 4.826
2:54 am 02:54 Cloudy with Heavy Thunderstorms 71 21.7 69 20.6 94 94 NW 9 15 30.05 1018 3 4.82802 0.22 5.588
2:59 am 02:59 Cloudy with Heavy Thunderstorms 70 21.1 68 20 93 93 WNW 8 13 30.06 1018 1.75 2.816345 0.06 1.524
3:19 am 03:19 Cloudy with Nearby Thunderstorms 69 20.6 68 20 96 96 SW 5 7 30.06 1018 2 3.21868 0.35 8.89
3:27 am 03:27 Cloudy with Nearby Thunderstorms 70 21.1 68 20 93 93 S 5 7 30.06 1018 3 4.82802 0.38 9.652
3:52 am 03:52 Cloudy with Nearby Thunderstorms 70 21 70 21 100 100 SW 3 6 30.06 1018 3 4.82802 0.48 12.192
3:54 am 03:54 Mostly Cloudy with Nearby Thunderstorms 70 21.1 69 20.6 97 97 WSW 3 6 30.05 1018 4 6.43736 0.49 12.446
4:11 am 04:11 Cloudy with Rain 70 21.1 68 20 93 93 SE 5 7 30.03 1017 4 6.43736 0.04 1.016
4:54 am 04:54 Partly Cloudy with Light Rain 70 21.1 69 20.6 97 97 NNE 8 13 30.04 1017 10 16.0934 0.09 2.286
5:54 am 05:54 Clear with Light Rain 69 20.6 68 20 96 96 NE 6 9 30.04 1017 10 16.0934 0 0.0254
6:22 am 06:22 Partly Cloudy 70 21.1 68 20 93 93 ESE 7 11 30.06 1018 10 16.0934 0 0.0254
6:32 am 06:32 Mostly Cloudy 70 21.1 68 20 93 93 ESE 8 13 30.06 1018 10 16.0934 0 0.0254
6:54 am 06:54 Cloudy 70 21.1 68 20 93 93 SE 6 9 30.06 1018 10 16.0934 0 0.0254
7:33 am 07:33 Partly Cloudy 71 21.7 68 20 90 90 NNE 3 6 30.06 1018 10 16.0934 0 0
7:54 am 07:54 Sunny 71 21.7 69 20.6 94 94 NE 6 9 30.06 1018 10 16.0934 0 0
8:04 am 08:04 Mostly Sunny 72 22.2 69 20.6 91 91 NE 8 13 30.06 1018 10 16.0934 0 0
8:54 am 08:54 Sunny 72 22.2 69 20.6 91 91 ENE 5 7 30.09 1019 10 16.0934 0 0
9:41 am 09:41 Mostly Cloudy 72 22.2 69 20.6 91 91 ESE 6 9 30.09 1019 10 16.0934 0 0
9:54 am 09:54 Cloudy 73 22.8 69 20.6 87 87 NE 5 7 30.09 1019 10 16.0934 0 0
10:11 am 10:11 Cloudy 74 23.3 69 20.6 85 85 Calm 30.09 1019 10 16.0934 0 0
10:44 am 10:44 Cloudy 75 23.9 69 20.6 82 82 Calm 30.12 1020 10 16.0934 0 0
10:51 am 10:51 Cloudy 75 24 70 21 83 83 Calm 30.12 1020 10 16.0934 0 0
10:54 am 10:54 Cloudy 75 23.9 69 20.6 82 82 Calm 30.11 1020 10 16.0934 0 0
11:04 am 11:04 Mostly Cloudy 76 24.4 69 20.6 79 79 ENE 3 6 30.09 1019 10 16.0934 0 0
11:30 am 11:30 Mostly Cloudy 76 24.4 69 20.6 79 79 ENE 8 13 30.09 1019 10 16.0934 0 0
11:54 am 11:54 Cloudy 76 24.4 69 20.6 79 79 ENE 8 13 30.11 1020 10 16.0934 0 0
12:08 pm 12:08 Cloudy 76 24.4 69 20.6 79 79 ENE 5 7 30.12 1020 10 16.0934 0 0
12:54 pm 12:54 Cloudy 77 25 70 21.1 79 79 VRB 5 7 30.12 1020 10 16.0934 0 0.0254
1:05 pm 13:05 Cloudy 77 25 69 20.6 77 77 N 5 7 30.09 1019 10 16.0934 0 0
1:31 pm 13:31 Mostly Cloudy 78 25.6 69 20.6 74 74 Calm 30.09 1019 10 16.0934 0 0
1:54 pm 13:54 Partly Cloudy 78 25.6 70 21.1 76 76 ENE 3 6 30.12 1020 10 16.0934 0 0
2:54 pm 14:54 Mostly Sunny 80 26.7 70 21.1 71 71 NE 7 11 30.1 1019 10 16.0934 0 0
3:54 pm 15:54 Partly Cloudy 82 27.8 70 21.1 67 67 ENE 5 7 30.1 1019 10 16.0934 0 0
4:54 pm 16:54 Partly Cloudy 82 27.8 70 21.1 67 67 NNE 6 9 30.09 1019 10 16.0934 0 0
5:54 pm 17:54 Mostly Sunny 83 28.3 70 21.1 65 65 NNE 7 11 30.06 1018 8 12.87472 0 0
6:54 pm 18:54 Mostly Sunny 83 28.3 70 21.1 65 65 NNE 8 13 30.06 1018 7 11.26538 0 0
7:54 pm 19:54 Mostly Sunny 81 27.2 70 21.1 69 69 NE 7 11 30.07 1018 9 14.48406 0 0
8:54 pm 20:54 Sunny 78 25.6 70 21.1 76 76 NE 5 7 30.08 1019 9 14.48406 0 0
9:54 pm 21:54 Clear 79 26.1 69 20.6 72 72 Calm 30.09 1019 10 16.0934 0 0
10:54 pm 22:54 Clear 76 24.4 70 21.1 82 82 Calm 30.11 1020 8 12.87472 0 0
11:54 pm 23:54 Clear with Mist and Fog 72 22.2 69 20.6 91 91 N 3 6 30.13 1020 6 9.65604 0 0

Powered by AerisWeather